KE8FSY Weather Reports


time (UTC)temp
C
wind
direction
speed
KPH
gust
KPH
rain 1hr
cm
rain 24hr
cm
rain mn
cm
humidity
%
barometer
mb
20260503005504 10 104 0.0 3.2 0.00 0.00 0.00 51 1016.9
20260503005007 10 104 0.0 3.2 0.00 0.00 0.00 50 1016.8
20260503004516 10 104 0.0 3.2 0.00 0.00 0.00 48 1016.7
20260503004006 10 101 0.0 3.2 0.00 0.00 0.00 47 1016.7
20260503003507 10 101 0.0 3.2 0.00 0.00 0.00 48 1016.7
20260503003021 10 101 0.0 3.2 0.00 0.00 0.00 46 1016.6
20260503002510 11 137 0.0 3.2 0.00 0.00 0.00 47 1016.6
20260503002012 11 290 0.0 3.2 0.00 0.00 0.00 46 1016.5
20260503001522 11 290 0.0 1.6 0.00 0.00 0.00 47 1016.5
20260503001012 11 291 0.0 0.0 0.00 0.00 0.00 46 1016.5
20260503000508 11 290 0.0 3.2 0.00 0.00 0.00 48 1016.5
20260503000024 11 291 0.0 3.2 0.00 0.00 0.00 47 1016.3
20260502235507 11 291 0.0 3.2 0.00 0.00 0.00 45 1016.2
20260502235007 11 291 0.0 3.2 0.00 0.00 0.00 44 1016.2
20260502234011 11 291 0.0 3.2 0.00 0.00 0.00 46 1016.2
20260502233508 11 290 0.0 3.2 0.00 0.00 0.00 46 1016.1
20260502233017 11 290 0.0 3.2 0.00 0.00 0.00 45 1016.0
20260502232511 11 290 0.0 3.2 0.00 0.00 0.00 46 1016.0
20260502232009 11 286 1.6 6.4 0.00 0.00 0.00 43 1016.1
20260502231521 12 287 1.6 6.4 0.00 0.00 0.00 42 1016.0
20260502231007 12 285 1.6 4.8 0.00 0.00 0.00 44 1016.0
20260502230507 12 296 1.6 6.4 0.00 0.00 0.00 43 1016.0
20260502230025 12 303 1.6 6.4 0.00 0.00 0.00 42 1015.9
20260502225507 12 302 0.0 4.8 0.00 0.00 0.00 45 1015.9
20260502225006 12 299 0.0 4.8 0.00 0.00 0.00 43 1015.9
20260502224525 12 303 1.6 6.4 0.00 0.00 0.00 43 1015.9
20260502224007 12 284 3.2 6.4 0.00 0.00 0.00 43 1015.9
20260502223513 12 287 1.6 4.8 0.00 0.00 0.00 41 1015.9
20260502223014 12 287 0.0 9.7 0.00 0.00 0.00 43 1015.9
20260502222507 12 283 3.2 9.7 0.00 0.00 0.00 42 1015.9
20260502222008 12 295 1.6 11.3 0.00 0.00 0.00 41 1015.8
20260502221519 12 276 1.6 11.3 0.00 0.00 0.00 43 1015.8
20260502221007 12 301 3.2 9.7 0.00 0.00 0.00 42 1015.7
20260502220509 12 303 0.0 6.4 0.00 0.00 0.00 42 1015.7
20260502220024 12 297 1.6 6.4 0.00 0.00 0.00 43 1015.6
20260502215508 12 283 0.0 6.4 0.00 0.00 0.00 42 1015.6
20260502215009 12 303 0.0 3.2 0.00 0.00 0.00 42 1015.6
20260502214525 12 318 1.6 6.4 0.00 0.00 0.00 41 1015.5
20260502214014 12 303 1.6 8.0 0.00 0.00 0.00 40 1015.5
20260502213510 12 293 1.6 14.5 0.00 0.00 0.00 41 1015.5
20260502213023 12 299 3.2 17.7 0.00 0.00 0.00 40 1015.5
20260502212508 13 312 4.8 17.7 0.00 0.00 0.00 39 1015.5
20260502212005 13 272 3.2 11.3 0.00 0.00 0.00 40 1015.5
20260502211514 13 292 3.2 14.5 0.00 0.00 0.00 41 1015.5
20260502211008 13 266 6.4 14.5 0.00 0.00 0.00 39 1015.4
20260502210509 13 283 4.8 11.3 0.00 0.00 0.00 43 1015.5
20260502210005 13 326 1.6 12.9 0.00 0.00 0.00 42 1015.4
20260502205505 13 290 1.6 12.9 0.00 0.00 0.00 40 1015.4
20260502205005 13 268 3.2 11.3 0.00 0.00 0.00 40 1015.4
20260502204506 13 295 3.2 14.5 0.00 0.00 0.00 39 1015.4
20260502204003 13 297 1.6 14.5 0.00 0.00 0.00 41 1015.4
20260502203503 13 279 1.6 8.0 0.00 0.00 0.00 45 1015.4
20260502203008 13 288 3.2 9.7 0.00 0.00 0.00 40 1015.5
20260502202504 13 262 4.8 14.5 0.00 0.00 0.00 42 1015.6
20260502202005 12 304 3.2 14.5 0.00 0.00 0.00 41 1015.6
20260502201512 12 292 3.2 9.7 0.00 0.00 0.00 40 1015.6
20260502201014 13 305 0.0 9.7 0.00 0.00 0.00 42 1015.7
20260502200509 13 301 0.0 11.3 0.00 0.00 0.00 42 1015.7
20260502200020 13 340 1.6 12.9 0.00 0.00 0.00 42 1015.7
20260502195504 13 224 1.6 12.9 0.00 0.00 0.00 42 1015.8
20260502195003 13 308 3.2 14.5 0.00 0.00 0.00 42 1015.7
20260502194505 13 283 4.8 14.5 0.00 0.00 0.00 39 1015.8
20260502194003 13 283 4.8 12.9 0.00 0.00 0.00 44 1015.8
20260502193503 13 289 3.2 11.3 0.00 0.00 0.00 44 1015.9
20260502193008 13 286 3.2 11.3 0.00 0.00 0.00 43 1016.0
20260502192505 13 288 3.2 11.3 0.00 0.00 0.00 41 1015.9
20260502192012 13 278 4.8 11.3 0.00 0.00 0.00 41 1016.0
20260502191512 13 299 3.2 12.9 0.00 0.00 0.00 41 1016.1
20260502191010 13 270 4.8 12.9 0.00 0.00 0.00 40 1016.1
20260502190511 13 303 6.4 12.9 0.00 0.00 0.00 39 1016.1
20260502190025 13 13 4.8 8.0 0.00 0.00 0.00 41 1016.2
20260502185508 13 135 1.6 14.5 0.00 0.00 0.00 41 1016.1
20260502185010 13 269 3.2 14.5 0.00 0.00 0.00 40 1016.2
20260502184519 13 310 3.2 16.1 0.00 0.00 0.00 40 1016.3
20260502184003 13 264 3.2 16.1 0.00 0.00 0.00 42 1016.3
20260502183504 13 243 3.2 16.1 0.00 0.00 0.00 42 1016.3
20260502183008 13 299 8.0 16.1 0.00 0.00 0.00 44 1016.4
20260502182506 13 262 1.6 6.4 0.00 0.00 0.00 45 1016.3
20260502182003 13 258 1.6 16.1 0.00 0.00 0.00 43 1016.4
20260502181512 12 299 3.2 16.1 0.00 0.00 0.00 44 1016.3
20260502181004 12 282 3.2 14.5 0.00 0.00 0.00 44 1016.6
20260502180506 12 295 4.8 12.9 0.00 0.00 0.00 44 1016.6
20260502170510 13 285 3.2 14.5 0.00 0.00 0.00 41 1016.9
20260502164010 13 274 6.4 22.5 0.00 0.00 0.00 41 1016.9
20260502163508 13 296 1.6 9.7 0.00 0.00 0.00 46 1016.9
20260502163034 13 280 1.6 16.1 0.00 0.00 0.00 42 1016.9
20260502162508 13 272 6.4 16.1 0.00 0.00 0.00 44 1016.9
20260502162003 13 191 3.2 14.5 0.00 0.00 0.00 43 1017.0
20260502161507 13 93 3.2 14.5 0.00 0.00 0.00 42 1017.2
20260502161008 13 286 4.8 12.9 0.00 0.00 0.00 43 1017.2
20260502160505 13 359 1.6 6.4 0.00 0.00 0.00 42 1017.2
20260502152011 13 278 3.2 11.3 0.00 0.00 0.00 50 1017.3
20260502151525 13 272 3.2 8.0 0.00 0.00 0.00 48 1017.4
20260502151005 13 248 1.6 6.4 0.00 0.00 0.00 49 1017.3
20260502150503 12 147 4.8 9.7 0.00 0.00 0.00 49 1017.3
20260502130508 8 201 1.6 6.4 0.00 0.00 0.00 79 1017.6
20260502123509 6 216 0.0 3.2 0.00 0.00 0.00 91 1017.7
20260502123020 5 230 0.0 3.2 0.00 0.00 0.00 91 1017.5
20260502122508 5 305 0.0 3.2 0.00 0.00 0.00 91 1017.4
20260502122017 5 307 0.0 3.2 0.00 0.00 0.00 91 1017.4
20260502121518 5 307 0.0 3.2 0.00 0.00 0.00 91 1017.3
20260502121007 4 310 0.0 3.2 0.00 0.00 0.00 91 1017.6
20260502120507 4 310 1.6 3.2 0.00 0.00 0.00 91 1017.6
20260502115505 3 320 1.6 3.2 0.00 0.00 0.00 91 1017.4
20260502115008 3 339 1.6 3.2 0.00 0.00 0.00 91 1017.4
20260502114513 3 351 1.6 1.6 0.00 0.00 0.00 91 1017.3
20260502114004 3 351 0.0 1.6 0.00 0.00 0.00 91 1017.3
20260502113506 3 351 0.0 0.0 0.00 0.00 0.00 90 1017.2
20260502113014 2 351 0.0 0.0 0.00 0.00 0.00 90 1017.2
20260502112506 2 351 0.0 0.0 0.00 0.00 0.00 89 1017.1
20260502112007 2 351 0.0 0.0 0.00 0.00 0.00 89 1017.1
20260502111517 2 351 0.0 0.0 0.00 0.00 0.00 89 1017.1
20260502111007 2 351 0.0 0.0 0.00 0.00 0.00 89 1017.1
20260502110509 2 351 0.0 0.0 0.00 0.00 0.00 89 1017.0
20260502110022 2 351 0.0 0.0 0.00 0.00 0.00 88 1016.9
20260502105509 2 351 0.0 0.0 0.00 0.00 0.00 88 1016.9
20260502105003 2 351 0.0 0.0 0.00 0.00 0.00 88 1016.9
20260502104507 2 351 0.0 0.0 0.00 0.00 0.00 88 1016.9
20260502104003 2 351 0.0 0.0 0.00 0.00 0.00 88 1017.0
20260502103503 2 351 0.0 0.0 0.00 0.00 0.00 88 1017.0
20260502103015 2 351 0.0 0.0 0.00 0.00 0.00 88 1016.9
20260502102507 2 351 0.0 0.0 0.00 0.00 0.00 88 1016.9
20260502102012 2 351 0.0 0.0 0.00 0.00 0.00 88 1016.9
20260502091006 2 351 0.0 0.0 0.00 0.00 0.00 88 1017.1
20260502090506 2 351 0.0 3.2 0.00 0.00 0.00 88 1017.1
20260502071530 3 56 0.0 3.2 0.00 0.00 0.00 86 1016.7
20260502071006 3 56 0.0 3.2 0.00 0.00 0.00 86 1016.7
20260502070013 3 56 0.0 3.2 0.00 0.00 0.00 86 1016.8
20260502065012 3 56 0.0 0.0 0.00 0.00 0.00 85 1017.0
20260502064008 3 56 0.0 0.0 0.00 0.00 0.00 85 1017.1
20260502063507 3 56 0.0 0.0 0.00 0.00 0.00 85 1017.1
20260502061525 3 56 0.0 3.2 0.00 0.00 0.00 85 1017.2
20260502061011 3 56 0.0 0.0 0.00 0.00 0.00 85 1017.2
20260502060027 3 56 0.0 3.2 0.00 0.00 0.00 84 1017.3
20260502055507 3 56 0.0 3.2 0.00 0.00 0.00 84 1017.2
20260502055008 3 56 0.0 0.0 0.00 0.00 0.00 84 1017.2
20260502054006 3 56 0.0 1.6 0.00 0.00 0.00 83 1017.2
20260502053507 4 56 0.0 1.6 0.00 0.00 0.00 83 1017.3
20260502053020 4 56 0.0 0.0 0.00 0.00 0.00 83 1017.3
20260502052507 4 56 0.0 0.0 0.00 0.00 0.00 83 1017.3
20260502052011 4 56 0.0 0.0 0.00 0.00 0.00 82 1017.4
20260502051524 4 56 0.0 3.2 0.00 0.00 0.00 82 1017.4
20260502051006 4 56 0.0 3.2 0.00 0.00 0.00 82 1017.4
20260502050510 5 56 0.0 0.0 0.00 0.00 0.00 81 1017.5
20260502050034 5 56 0.0 0.0 0.00 0.00 0.00 81 1017.5
20260502045510 5 56 0.0 0.0 0.00 0.00 0.00 80 1017.5
20260502045012 5 56 0.0 0.0 0.00 0.00 0.00 80 1017.4
20260502044528 5 56 0.0 0.0 0.00 0.00 0.00 80 1017.5
20260502043507 5 56 0.0 3.2 0.00 0.00 0.00 80 1017.5
20260502042508 5 56 0.0 3.2 0.00 0.00 0.00 80 1017.7
20260502042012 5 71 0.0 3.2 0.00 0.00 0.00 79 1017.6
20260502041526 5 71 0.0 3.2 0.00 0.00 0.00 78 1017.5
20260502041007 6 71 0.0 0.0 0.00 0.00 0.00 78 1017.7
20260502040508 6 71 0.0 0.0 0.00 0.00 0.00 76 1017.7
20260502040022 6 71 0.0 0.0 0.00 0.00 0.00 77 1017.7
20260502035510 6 71 0.0 0.0 0.00 0.00 0.00 76 1017.6
20260502035013 6 71 0.0 0.0 0.00 0.00 0.00 76 1017.5
20260502034526 6 71 0.0 3.2 0.00 0.00 0.00 75 1017.6
20260502034010 6 71 0.0 3.2 0.00 0.00 0.00 75 1017.5
20260502033514 6 71 0.0 3.2 0.00 0.00 0.00 76 1017.4
20260502033018 6 71 0.0 3.2 0.00 0.00 0.00 75 1017.4
20260502032507 7 71 0.0 3.2 0.00 0.00 0.00 74 1017.3
20260502031008 7 71 0.0 0.0 0.00 0.00 0.00 72 1017.3
20260502030509 7 71 0.0 3.2 0.00 0.00 0.00 71 1017.3
20260502030030 7 71 0.0 3.2 0.00 0.00 0.00 71 1017.4
20260502025508 8 71 0.0 3.2 0.00 0.00 0.00 71 1017.5
20260502025010 8 71 0.0 0.0 0.00 0.00 0.00 68 1017.5
20260502024527 8 71 0.0 0.0 0.00 0.00 0.00 68 1017.5
20260502024009 8 71 0.0 0.0 0.00 0.00 0.00 67 1017.6
20260502023513 8 71 0.0 0.0 0.00 0.00 0.00 67 1017.7
20260502023024 9 71 0.0 0.0 0.00 0.00 0.00 66 1017.7
20260502022509 9 71 0.0 1.6 0.00 0.00 0.00 65 1017.7
20260502022010 9 71 0.0 1.6 0.00 0.00 0.00 65 1017.6
20260502021514 9 71 0.0 1.6 0.00 0.00 0.00 64 1017.5
20260502020507 10 71 0.0 0.0 0.00 0.00 0.00 62 1017.1
20260502015508 10 71 0.0 3.2 0.00 0.00 0.00 62 1016.8
20260502015008 10 71 0.0 3.2 0.00 0.00 0.00 60 1016.8
20260502014529 10 71 0.0 3.2 0.00 0.00 0.00 59 1016.7
20260502014008 10 71 0.0 3.2 0.00 0.00 0.00 59 1016.5
20260502013509 10 71 0.0 3.2 0.00 0.00 0.00 58 1016.5
20260502013023 10 71 0.0 4.8 0.00 0.00 0.00 58 1016.6
20260502012937 10 89 1.6 4.8 0.00 0.00 0.00 58 1016.2
20260502012930 10 52 0.0 4.8 0.00 0.00 0.00 57 1016.1
20260502012927 11 291 0.0 4.8 0.00 0.00 0.00 57 1016.1
20260502012923 11 64 1.6 9.7 0.00 0.00 0.00 56 1016.0
20260502012920 11 84 0.0 3.2 0.00 0.00 0.00 57 1015.9
20260502012916 11 100 1.6 3.2 0.00 0.00 0.00 57 1015.7
20260502012913 11 131 1.6 4.8 0.00 0.00 0.00 56 1015.5
20260502012910 11 129 1.6 4.8 0.00 0.00 0.00 56 1015.5
20260502012907 11 94 0.0 4.8 0.00 0.00 0.00 56 1015.6
20260502012900 11 59 3.2 14.5 0.00 0.00 0.00 57 1015.3
20260502012856 11 126 3.2 17.7 0.00 0.00 0.00 57 1015.3
20260502012852 12 299 3.2 17.7 0.00 0.00 0.00 56 1015.0
20260502012848 12 74 0.0 11.3 0.00 0.00 0.00 57 1015.1
20260502012846 12 29 3.2 8.0 0.00 0.00 0.00 57 1015.0
20260502012842 12 84 1.6 12.9 0.00 0.00 0.00 57 1014.9
20260502012832 12 8 3.2 12.9 0.00 0.00 0.00 56 1014.7
20260502012828 13 118 3.2 6.4 0.00 0.00 0.00 56 1014.6
20260502012826 13 291 3.2 4.8 0.00 0.00 0.00 55 1014.3
20260502012821 13 296 1.6 8.0 0.00 0.00 0.00 55 1014.2
20260502012819 13 52 0.0 8.0 0.00 0.00 0.00 55 1013.8
20260502012813 13 285 3.2 0.0 0.00 0.00 0.00 54 1013.4